Year,Month,Day,Hour,Minute,Value (Times are PST for temperature in C)
2014,08,03,00,00,25.00
2014,08,03,00,01,25.00
2014,08,03,00,02,25.00
2014,08,03,00,03,24.90
2014,08,03,00,04,24.90
2014,08,03,00,05,24.90
2014,08,03,00,06,24.90
2014,08,03,00,07,24.90
2014,08,03,00,08,24.90
2014,08,03,00,09,24.90
2014,08,03,00,10,24.80
2014,08,03,00,11,24.80
2014,08,03,00,12,24.80
2014,08,03,00,13,24.80
2014,08,03,00,14,24.80
2014,08,03,00,15,24.80
2014,08,03,00,16,24.80
2014,08,03,00,17,24.80
2014,08,03,00,18,24.80
2014,08,03,00,19,24.80
2014,08,03,00,20,24.80
2014,08,03,00,21,24.80
2014,08,03,00,22,24.70
2014,08,03,00,23,24.70
2014,08,03,00,24,24.70
2014,08,03,00,25,24.70
2014,08,03,00,26,24.70
2014,08,03,00,27,24.60
2014,08,03,00,28,24.60
2014,08,03,00,29,24.60
2014,08,03,00,30,24.60
2014,08,03,00,31,24.60
2014,08,03,00,32,24.60
2014,08,03,00,33,24.60
2014,08,03,00,34,24.70
2014,08,03,00,35,24.70
2014,08,03,00,36,24.70
2014,08,03,00,37,24.70
2014,08,03,00,38,24.70
2014,08,03,00,39,24.60
2014,08,03,00,40,24.60
2014,08,03,00,41,24.60
2014,08,03,00,42,24.60
2014,08,03,00,43,24.60
2014,08,03,00,44,24.50
2014,08,03,00,45,24.50
2014,08,03,00,46,24.50
2014,08,03,00,47,24.40
2014,08,03,00,48,24.40
2014,08,03,00,49,24.40
2014,08,03,00,50,24.40
2014,08,03,00,51,24.40
2014,08,03,00,52,24.30
2014,08,03,00,53,24.30
2014,08,03,00,54,24.30
2014,08,03,00,55,24.30
2014,08,03,00,56,24.20
2014,08,03,00,57,24.20
2014,08,03,00,58,24.20
2014,08,03,00,59,24.20
2014,08,03,01,00,24.20
2014,08,03,01,01,24.20
2014,08,03,01,02,24.10
2014,08,03,01,03,24.10
2014,08,03,01,04,24.10
2014,08,03,01,05,24.10
2014,08,03,01,06,24.00
2014,08,03,01,07,24.00
2014,08,03,01,08,24.00
2014,08,03,01,09,23.90
2014,08,03,01,10,23.90
2014,08,03,01,11,23.90
2014,08,03,01,12,23.90
2014,08,03,01,13,23.90
2014,08,03,01,14,23.90
2014,08,03,01,15,23.90
2014,08,03,01,16,23.80
2014,08,03,01,17,23.80
2014,08,03,01,18,23.80
2014,08,03,01,19,23.90
2014,08,03,01,20,23.90
2014,08,03,01,21,23.90
2014,08,03,01,22,23.90
2014,08,03,01,23,23.90
2014,08,03,01,24,23.90
2014,08,03,01,25,23.90
2014,08,03,01,26,23.90
2014,08,03,01,27,23.90
2014,08,03,01,28,23.90
2014,08,03,01,29,23.90
2014,08,03,01,30,23.80
2014,08,03,01,31,23.80
2014,08,03,01,32,23.80
2014,08,03,01,33,23.80
2014,08,03,01,34,23.80
2014,08,03,01,35,23.80
2014,08,03,01,36,23.80
2014,08,03,01,37,23.80
2014,08,03,01,38,23.70
2014,08,03,01,39,23.70
2014,08,03,01,40,23.70
2014,08,03,01,41,23.60
2014,08,03,01,42,23.60
2014,08,03,01,43,23.60
2014,08,03,01,44,23.50
2014,08,03,01,45,23.50
2014,08,03,01,46,23.40
2014,08,03,01,47,23.40
2014,08,03,01,48,23.40
2014,08,03,01,49,23.40
2014,08,03,01,50,23.30
2014,08,03,01,51,23.30
2014,08,03,01,52,23.30
2014,08,03,01,53,23.30
2014,08,03,01,54,23.30
2014,08,03,01,55,23.20
2014,08,03,01,56,23.20
2014,08,03,01,57,23.20
2014,08,03,01,58,23.20
2014,08,03,01,59,23.20
2014,08,03,02,00,23.20
2014,08,03,02,01,23.20
2014,08,03,02,02,23.20
2014,08,03,02,03,23.30
2014,08,03,02,04,23.30
2014,08,03,02,05,23.30
2014,08,03,02,06,23.30
2014,08,03,02,07,23.30
2014,08,03,02,08,23.30
2014,08,03,02,09,23.30
2014,08,03,02,10,23.30
2014,08,03,02,11,23.30
2014,08,03,02,12,23.30
2014,08,03,02,13,23.30
2014,08,03,02,14,23.30
2014,08,03,02,15,23.30
2014,08,03,02,16,23.30
2014,08,03,02,17,23.30
2014,08,03,02,18,23.20
2014,08,03,02,19,23.20
2014,08,03,02,20,23.10
2014,08,03,02,21,23.10
2014,08,03,02,22,23.00
2014,08,03,02,23,23.00
2014,08,03,02,24,22.90
2014,08,03,02,25,22.90
2014,08,03,02,26,22.90
2014,08,03,02,27,22.80
2014,08,03,02,28,22.80
2014,08,03,02,29,22.80
2014,08,03,02,30,22.70
2014,08,03,02,31,22.70
2014,08,03,02,32,22.60
2014,08,03,02,33,22.60
2014,08,03,02,34,22.60
2014,08,03,02,35,22.60
2014,08,03,02,36,22.50
2014,08,03,02,37,22.60
2014,08,03,02,38,22.60
2014,08,03,02,39,22.60
2014,08,03,02,40,22.60
2014,08,03,02,41,22.70
2014,08,03,02,42,22.70
2014,08,03,02,43,22.80
2014,08,03,02,44,22.80
2014,08,03,02,45,22.90
2014,08,03,02,46,22.90
2014,08,03,02,47,23.00
2014,08,03,02,48,23.00
2014,08,03,02,49,23.00
2014,08,03,02,50,23.00
2014,08,03,02,51,23.00
2014,08,03,02,52,22.90
2014,08,03,02,53,22.90
2014,08,03,02,54,22.90
2014,08,03,02,55,22.90
2014,08,03,02,56,22.90
2014,08,03,02,57,22.90
2014,08,03,02,58,22.80
2014,08,03,02,59,22.80
2014,08,03,03,00,22.80
2014,08,03,03,01,22.80
2014,08,03,03,02,22.80
2014,08,03,03,03,22.80
2014,08,03,03,04,22.80
2014,08,03,03,05,22.80
2014,08,03,03,06,22.80
2014,08,03,03,07,22.80
2014,08,03,03,08,22.80
2014,08,03,03,09,22.80
2014,08,03,03,10,22.80
2014,08,03,03,11,22.70
2014,08,03,03,12,22.70
2014,08,03,03,13,22.70
2014,08,03,03,14,22.60
2014,08,03,03,15,22.50
2014,08,03,03,16,22.50
2014,08,03,03,17,22.40
2014,08,03,03,18,22.40
2014,08,03,03,19,22.40
2014,08,03,03,20,22.30
2014,08,03,03,21,22.30
2014,08,03,03,22,22.30
2014,08,03,03,23,22.30
2014,08,03,03,24,22.20
2014,08,03,03,25,22.20
2014,08,03,03,26,22.20
2014,08,03,03,27,22.20
2014,08,03,03,28,22.20
2014,08,03,03,29,22.20
2014,08,03,03,30,22.20
2014,08,03,03,31,22.20
2014,08,03,03,32,22.20
2014,08,03,03,33,22.20
2014,08,03,03,34,22.20
2014,08,03,03,35,22.20
2014,08,03,03,36,22.10
2014,08,03,03,37,22.10
2014,08,03,03,38,22.10
2014,08,03,03,39,22.10
2014,08,03,03,40,22.10
2014,08,03,03,41,22.00
2014,08,03,03,42,22.00
2014,08,03,03,43,22.00
2014,08,03,03,44,21.90
2014,08,03,03,45,21.90
2014,08,03,03,46,21.90
2014,08,03,03,47,21.80
2014,08,03,03,48,21.80
2014,08,03,03,49,21.80
2014,08,03,03,50,21.70
2014,08,03,03,51,21.70
2014,08,03,03,52,21.60
2014,08,03,03,53,21.50
2014,08,03,03,54,21.50
2014,08,03,03,55,21.40
2014,08,03,03,56,21.30
2014,08,03,03,57,21.30
2014,08,03,03,58,21.20
2014,08,03,03,59,21.10
2014,08,03,04,00,21.00
2014,08,03,04,01,20.90
2014,08,03,04,02,20.90
2014,08,03,04,03,20.80
2014,08,03,04,04,20.80
2014,08,03,04,05,20.80
2014,08,03,04,06,20.70
2014,08,03,04,07,20.70
2014,08,03,04,08,20.60
2014,08,03,04,09,20.60
2014,08,03,04,10,20.60
2014,08,03,04,11,20.60
2014,08,03,04,12,20.60
2014,08,03,04,13,20.50
2014,08,03,04,14,20.50
2014,08,03,04,15,20.40
2014,08,03,04,16,20.40
2014,08,03,04,17,20.40
2014,08,03,04,18,20.30
2014,08,03,04,19,20.30
2014,08,03,04,20,20.30
2014,08,03,04,21,20.20
2014,08,03,04,22,20.20
2014,08,03,04,23,20.20
2014,08,03,04,24,20.10
2014,08,03,04,25,20.10
2014,08,03,04,26,20.00
2014,08,03,04,27,20.00
2014,08,03,04,28,19.90
2014,08,03,04,29,19.90
2014,08,03,04,30,19.80
2014,08,03,04,31,19.80
2014,08,03,04,32,19.70
2014,08,03,04,33,19.70
2014,08,03,04,34,19.60
2014,08,03,04,35,19.60
2014,08,03,04,36,19.50
2014,08,03,04,37,19.50
2014,08,03,04,38,19.40
2014,08,03,04,39,19.40
2014,08,03,04,40,19.30
2014,08,03,04,41,19.30
2014,08,03,04,42,19.30
2014,08,03,04,43,19.20
2014,08,03,04,44,19.20
2014,08,03,04,45,19.20
2014,08,03,04,46,19.10
2014,08,03,04,47,19.10
2014,08,03,04,48,19.10
2014,08,03,04,49,19.10
2014,08,03,04,50,19.10
2014,08,03,04,51,19.10
2014,08,03,04,52,19.00
2014,08,03,04,53,19.00
2014,08,03,04,54,19.00
2014,08,03,04,55,19.00
2014,08,03,04,56,19.00
2014,08,03,04,57,19.00
2014,08,03,04,58,19.00
2014,08,03,04,59,19.00
2014,08,03,05,00,19.00
2014,08,03,05,01,19.00
2014,08,03,05,02,19.10
2014,08,03,05,03,19.10
2014,08,03,05,04,19.20
2014,08,03,05,05,19.30
2014,08,03,05,06,19.30
2014,08,03,05,07,19.40
2014,08,03,05,08,19.50
2014,08,03,05,09,19.60
2014,08,03,05,10,19.70
2014,08,03,05,11,19.80
2014,08,03,05,12,19.90
2014,08,03,05,13,20.00
2014,08,03,05,14,20.10
2014,08,03,05,15,20.20
2014,08,03,05,16,20.20
2014,08,03,05,17,20.30
2014,08,03,05,18,20.40
2014,08,03,05,19,20.50
2014,08,03,05,20,20.50
2014,08,03,05,21,20.60
2014,08,03,05,22,20.60
2014,08,03,05,23,20.70
2014,08,03,05,24,20.70
2014,08,03,05,25,20.70
2014,08,03,05,26,20.70
2014,08,03,05,27,20.80
2014,08,03,05,28,20.80
2014,08,03,05,29,20.80
2014,08,03,05,30,20.80
2014,08,03,05,31,20.80
2014,08,03,05,32,20.80
2014,08,03,05,33,20.90
2014,08,03,05,34,20.90
2014,08,03,05,35,20.90
2014,08,03,05,36,20.90
2014,08,03,05,37,20.90
2014,08,03,05,38,20.90
2014,08,03,05,39,21.00
2014,08,03,05,40,21.00
2014,08,03,05,41,21.00
2014,08,03,05,42,21.00
2014,08,03,05,43,21.00
2014,08,03,05,44,21.00
2014,08,03,05,45,21.00
2014,08,03,05,46,21.00
2014,08,03,05,47,21.00
2014,08,03,05,48,21.00
2014,08,03,05,49,21.10
2014,08,03,05,50,21.10
2014,08,03,05,51,21.00
2014,08,03,05,52,21.00
2014,08,03,05,53,21.00
2014,08,03,05,54,21.00
2014,08,03,05,55,20.90
2014,08,03,05,56,20.90
2014,08,03,05,57,20.90
2014,08,03,05,58,20.90
2014,08,03,05,59,20.90
2014,08,03,06,00,20.80
2014,08,03,06,01,20.80
2014,08,03,06,02,20.80
2014,08,03,06,03,20.80
2014,08,03,06,04,20.80
2014,08,03,06,05,20.80
2014,08,03,06,06,20.80
2014,08,03,06,07,20.80
2014,08,03,06,08,20.80
2014,08,03,06,09,20.80
2014,08,03,06,10,20.70
2014,08,03,06,11,20.80
2014,08,03,06,12,20.70
2014,08,03,06,13,20.70
2014,08,03,06,14,20.70
2014,08,03,06,15,20.70
2014,08,03,06,16,20.70
2014,08,03,06,17,20.70
2014,08,03,06,18,20.70
2014,08,03,06,19,20.70
2014,08,03,06,20,20.70
2014,08,03,06,21,20.70
2014,08,03,06,22,20.70
2014,08,03,06,23,20.80
2014,08,03,06,24,20.80
2014,08,03,06,25,20.90
2014,08,03,06,26,20.90
2014,08,03,06,27,21.00
2014,08,03,06,28,21.00
2014,08,03,06,29,21.10
2014,08,03,06,30,21.10
2014,08,03,06,31,21.20
2014,08,03,06,32,21.30
2014,08,03,06,33,21.30
2014,08,03,06,34,21.40
2014,08,03,06,35,21.40
2014,08,03,06,36,21.50
2014,08,03,06,37,21.50
2014,08,03,06,38,21.50
2014,08,03,06,39,21.60
2014,08,03,06,40,21.60
2014,08,03,06,41,21.60
2014,08,03,06,42,21.60
2014,08,03,06,43,21.60
2014,08,03,06,44,21.60
2014,08,03,06,45,21.60
2014,08,03,06,46,21.60
2014,08,03,06,47,21.60
2014,08,03,06,48,21.60
2014,08,03,06,49,21.60
2014,08,03,06,50,21.60
2014,08,03,06,51,21.60
2014,08,03,06,52,21.70
2014,08,03,06,53,21.70
2014,08,03,06,54,21.70
2014,08,03,06,55,21.70
2014,08,03,06,56,21.70
2014,08,03,06,57,21.70
2014,08,03,06,58,21.70
2014,08,03,06,59,21.70
2014,08,03,07,00,21.70
2014,08,03,07,01,21.80
2014,08,03,07,02,21.80
2014,08,03,07,03,21.80
2014,08,03,07,04,21.80
2014,08,03,07,05,21.80
2014,08,03,07,06,21.80
2014,08,03,07,07,21.80
2014,08,03,07,08,21.80
2014,08,03,07,09,21.80
2014,08,03,07,10,21.80
2014,08,03,07,11,21.80
2014,08,03,07,12,21.80
2014,08,03,07,13,21.80
2014,08,03,07,14,21.90
2014,08,03,07,15,21.90
2014,08,03,07,16,21.90
2014,08,03,07,17,21.90
2014,08,03,07,18,21.90
2014,08,03,07,19,21.90
2014,08,03,07,20,21.90
2014,08,03,07,21,22.00
2014,08,03,07,22,22.00
2014,08,03,07,23,22.10
2014,08,03,07,24,22.10
2014,08,03,07,25,22.20
2014,08,03,07,26,22.20
2014,08,03,07,27,22.20
2014,08,03,07,28,22.30
2014,08,03,07,29,22.30
2014,08,03,07,30,22.30
2014,08,03,07,31,22.40
2014,08,03,07,32,22.40
2014,08,03,07,33,22.40
2014,08,03,07,34,22.40
2014,08,03,07,35,22.40
2014,08,03,07,36,22.40
2014,08,03,07,37,22.40
2014,08,03,07,38,22.40
2014,08,03,07,39,22.40
2014,08,03,07,40,22.40
2014,08,03,07,41,22.40
2014,08,03,07,42,22.40
2014,08,03,07,43,22.40
2014,08,03,07,44,22.40
2014,08,03,07,45,22.40
2014,08,03,07,46,22.40
2014,08,03,07,47,22.30
2014,08,03,07,48,22.30
2014,08,03,07,49,22.30
2014,08,03,07,50,22.20
2014,08,03,07,51,22.20
2014,08,03,07,52,22.10
2014,08,03,07,53,22.10
2014,08,03,07,54,22.10
2014,08,03,07,55,22.00
2014,08,03,07,56,22.00
2014,08,03,07,57,21.90
2014,08,03,07,58,21.90
2014,08,03,07,59,21.90
2014,08,03,08,00,21.90
2014,08,03,08,01,21.90
2014,08,03,08,02,22.00
2014,08,03,08,03,22.00
2014,08,03,08,04,22.00
2014,08,03,08,05,22.00
2014,08,03,08,06,22.00
2014,08,03,08,07,22.10
2014,08,03,08,08,22.10
2014,08,03,08,09,22.10
2014,08,03,08,10,22.10
2014,08,03,08,11,22.20
2014,08,03,08,12,22.20
2014,08,03,08,13,22.20
2014,08,03,08,14,22.30
2014,08,03,08,15,22.30
2014,08,03,08,16,22.30
2014,08,03,08,17,22.40
2014,08,03,08,18,22.40
2014,08,03,08,19,22.40
2014,08,03,08,20,22.40
2014,08,03,08,21,22.40
2014,08,03,08,22,22.50
2014,08,03,08,23,22.50
2014,08,03,08,24,22.50
2014,08,03,08,25,22.50
2014,08,03,08,26,22.50
2014,08,03,08,27,22.50
2014,08,03,08,28,22.60
2014,08,03,08,29,22.60
2014,08,03,08,30,22.50
2014,08,03,08,31,22.50
2014,08,03,08,32,22.50
2014,08,03,08,33,22.40
2014,08,03,08,34,22.40
2014,08,03,08,35,22.40
2014,08,03,08,36,22.30
2014,08,03,08,37,22.30
2014,08,03,08,38,22.30
2014,08,03,08,39,22.30
2014,08,03,08,40,22.20
2014,08,03,08,41,22.20
2014,08,03,08,42,22.20
2014,08,03,08,43,22.10
2014,08,03,08,44,22.10
2014,08,03,08,45,22.00
2014,08,03,08,46,22.00
2014,08,03,08,47,22.00
2014,08,03,08,48,22.00
2014,08,03,08,49,22.00
2014,08,03,08,50,22.00
2014,08,03,08,51,21.90
2014,08,03,08,52,21.90
2014,08,03,08,53,21.90
2014,08,03,08,54,21.80
2014,08,03,08,55,21.80
2014,08,03,08,56,21.70
2014,08,03,08,57,21.70
2014,08,03,08,58,21.80
2014,08,03,08,59,21.80
2014,08,03,09,00,21.90
2014,08,03,09,01,21.90
2014,08,03,09,02,22.00
2014,08,03,09,03,22.10
2014,08,03,09,04,22.10
2014,08,03,09,05,22.10
2014,08,03,09,06,22.00
2014,08,03,09,07,22.00
2014,08,03,09,08,22.00
2014,08,03,09,09,22.00
2014,08,03,09,10,22.00
2014,08,03,09,11,21.90
2014,08,03,09,12,21.90
2014,08,03,09,13,21.90
2014,08,03,09,14,21.90
2014,08,03,09,15,21.90
2014,08,03,09,16,21.80
2014,08,03,09,17,21.80
2014,08,03,09,18,21.80
2014,08,03,09,19,21.80
2014,08,03,09,20,21.80
2014,08,03,09,21,21.80
2014,08,03,09,22,21.80
2014,08,03,09,23,21.90
2014,08,03,09,24,21.90
2014,08,03,09,25,21.90
2014,08,03,09,26,21.90
2014,08,03,09,27,21.90
2014,08,03,09,28,21.90
2014,08,03,09,29,21.90
2014,08,03,09,30,22.00
2014,08,03,09,31,22.00
2014,08,03,09,32,22.00
2014,08,03,09,33,22.00
2014,08,03,09,34,22.00
2014,08,03,09,35,22.00
2014,08,03,09,36,22.10
2014,08,03,09,37,22.10
2014,08,03,09,38,22.10
2014,08,03,09,39,22.10
2014,08,03,09,40,22.10
2014,08,03,09,41,22.10
2014,08,03,09,42,22.10
2014,08,03,09,43,22.20
2014,08,03,09,44,22.30
2014,08,03,09,45,22.30
2014,08,03,09,46,22.40
2014,08,03,09,47,22.50
2014,08,03,09,48,22.60
2014,08,03,09,49,22.60
2014,08,03,09,50,22.60
2014,08,03,09,51,22.60
2014,08,03,09,52,22.60
2014,08,03,09,53,22.60
2014,08,03,09,54,22.60
2014,08,03,09,55,22.70
2014,08,03,09,56,22.70
2014,08,03,09,57,22.80
2014,08,03,09,58,22.80
2014,08,03,09,59,22.90
2014,08,03,10,00,22.90
2014,08,03,10,01,22.90
2014,08,03,10,02,22.90
2014,08,03,10,03,22.90
2014,08,03,10,04,23.00
2014,08,03,10,05,23.10
2014,08,03,10,06,23.10
2014,08,03,10,07,23.10
2014,08,03,10,08,23.10
2014,08,03,10,09,23.10
2014,08,03,10,10,23.20
2014,08,03,10,11,23.30
2014,08,03,10,12,23.30
2014,08,03,10,13,23.30
2014,08,03,10,14,23.40
2014,08,03,10,15,23.40
2014,08,03,10,16,23.40
2014,08,03,10,17,23.40
2014,08,03,10,18,23.30
2014,08,03,10,19,23.30
2014,08,03,10,20,23.30
2014,08,03,10,21,23.30
2014,08,03,10,22,23.20
2014,08,03,10,23,23.20
2014,08,03,10,24,23.30
2014,08,03,10,25,23.30
2014,08,03,10,26,23.30
2014,08,03,10,27,23.40
2014,08,03,10,28,23.40
2014,08,03,10,29,23.50
2014,08,03,10,30,23.50
2014,08,03,10,31,23.60
2014,08,03,10,32,23.70
2014,08,03,10,33,23.70
2014,08,03,10,34,23.80
2014,08,03,10,35,23.80
2014,08,03,10,36,23.80
2014,08,03,10,37,23.90
2014,08,03,10,38,23.90
2014,08,03,10,39,23.90
2014,08,03,10,40,24.00
2014,08,03,10,41,24.00
2014,08,03,10,42,24.00
2014,08,03,10,43,24.00
2014,08,03,10,44,24.10
2014,08,03,10,45,24.10
2014,08,03,10,46,24.00
2014,08,03,10,47,24.00
2014,08,03,10,48,24.00
2014,08,03,10,49,24.00
2014,08,03,10,50,24.00
2014,08,03,10,51,24.10
2014,08,03,10,52,24.20
2014,08,03,10,53,24.20
2014,08,03,10,54,24.30
2014,08,03,10,55,24.30
2014,08,03,10,56,24.40
2014,08,03,10,57,24.40
2014,08,03,10,58,24.40
2014,08,03,10,59,24.40
2014,08,03,11,00,24.40
2014,08,03,11,01,24.50
2014,08,03,11,02,24.50
2014,08,03,11,03,24.50
2014,08,03,11,04,24.40
2014,08,03,11,05,24.40
2014,08,03,11,06,24.40
2014,08,03,11,07,24.40
2014,08,03,11,08,24.40
2014,08,03,11,09,24.40
2014,08,03,11,10,24.50
2014,08,03,11,11,24.50
2014,08,03,11,12,24.40
2014,08,03,11,13,24.40
2014,08,03,11,14,24.30
2014,08,03,11,15,24.20
2014,08,03,11,16,24.10
2014,08,03,11,17,24.00
2014,08,03,11,18,23.90
2014,08,03,11,19,23.80
2014,08,03,11,20,23.80
2014,08,03,11,21,23.80
2014,08,03,11,22,23.90
2014,08,03,11,23,24.00
2014,08,03,11,24,24.10
2014,08,03,11,25,24.20
2014,08,03,11,26,24.30
2014,08,03,11,27,24.40
2014,08,03,11,28,24.40
2014,08,03,11,29,24.40
2014,08,03,11,30,24.40
2014,08,03,11,31,24.40
2014,08,03,11,32,24.30
2014,08,03,11,33,24.30
2014,08,03,11,34,24.30
2014,08,03,11,35,24.20
2014,08,03,11,36,24.20
2014,08,03,11,37,24.20
2014,08,03,11,38,24.20
2014,08,03,11,39,24.30
2014,08,03,11,40,24.30
2014,08,03,11,41,24.40
2014,08,03,11,42,24.40
2014,08,03,11,43,24.50
2014,08,03,11,44,24.40
2014,08,03,11,45,24.50
2014,08,03,11,46,24.50
2014,08,03,11,47,24.50
2014,08,03,11,48,24.40
2014,08,03,11,49,24.30
2014,08,03,11,50,24.20
2014,08,03,11,51,24.20
2014,08,03,11,52,24.10
2014,08,03,11,53,24.00
2014,08,03,11,54,23.80
2014,08,03,11,55,23.90
2014,08,03,11,56,23.90
2014,08,03,11,57,24.00
2014,08,03,11,58,24.00
2014,08,03,11,59,24.00
2014,08,03,12,00,24.10
2014,08,03,12,01,24.10
2014,08,03,12,02,24.10
2014,08,03,12,03,24.10
2014,08,03,12,04,24.10
2014,08,03,12,05,24.10
2014,08,03,12,06,24.10
2014,08,03,12,07,24.10
2014,08,03,12,08,24.10
2014,08,03,12,09,24.10
2014,08,03,12,10,24.10
2014,08,03,12,11,24.20
2014,08,03,12,12,24.30
2014,08,03,12,13,24.30
2014,08,03,12,14,24.40
2014,08,03,12,15,24.40
2014,08,03,12,16,24.40
2014,08,03,12,17,24.40
2014,08,03,12,18,24.50
2014,08,03,12,19,24.50
2014,08,03,12,20,24.50
2014,08,03,12,21,24.50
2014,08,03,12,22,24.50
2014,08,03,12,23,24.40
2014,08,03,12,24,24.50
2014,08,03,12,25,24.60
2014,08,03,12,26,24.60
2014,08,03,12,27,24.60
2014,08,03,12,28,24.60
2014,08,03,12,29,24.60
2014,08,03,12,30,24.70
2014,08,03,12,31,24.70
2014,08,03,12,32,24.70
2014,08,03,12,33,24.70
2014,08,03,12,34,24.70
2014,08,03,12,35,24.70
2014,08,03,12,36,24.70
2014,08,03,12,37,24.80
2014,08,03,12,38,24.90
2014,08,03,12,39,24.90
2014,08,03,12,40,25.00
2014,08,03,12,41,25.00
2014,08,03,12,42,24.90
2014,08,03,12,43,24.90
2014,08,03,12,44,24.90
2014,08,03,12,45,24.90
2014,08,03,12,46,24.90
2014,08,03,12,47,24.90
2014,08,03,12,48,25.00
2014,08,03,12,49,25.00
2014,08,03,12,50,25.10
2014,08,03,12,51,25.20
2014,08,03,12,52,25.20
2014,08,03,12,53,25.30
2014,08,03,12,54,25.30
2014,08,03,12,55,25.30
2014,08,03,12,56,25.30
2014,08,03,12,57,25.40
2014,08,03,12,58,25.40
2014,08,03,12,59,25.40
2014,08,03,13,00,25.40
2014,08,03,13,01,25.50
2014,08,03,13,02,25.50
2014,08,03,13,03,25.60
2014,08,03,13,04,25.70
2014,08,03,13,05,25.70
2014,08,03,13,06,25.70
2014,08,03,13,07,25.70
2014,08,03,13,08,25.70
2014,08,03,13,09,25.80
2014,08,03,13,10,25.90
2014,08,03,13,11,26.00
2014,08,03,13,12,26.10
2014,08,03,13,13,26.20
2014,08,03,13,14,26.20
2014,08,03,13,15,26.30
2014,08,03,13,16,26.30
2014,08,03,13,17,26.40
2014,08,03,13,18,26.50
2014,08,03,13,19,26.60
2014,08,03,13,20,26.70
2014,08,03,13,21,26.70
2014,08,03,13,22,26.70
2014,08,03,13,23,26.70
2014,08,03,13,24,26.80
2014,08,03,13,25,26.80
2014,08,03,13,26,26.90
2014,08,03,13,27,26.90
2014,08,03,13,28,26.90
2014,08,03,13,29,27.00
2014,08,03,13,30,27.00
2014,08,03,13,31,27.10
2014,08,03,13,32,27.10
2014,08,03,13,33,27.20
2014,08,03,13,34,27.30
2014,08,03,13,35,27.30
2014,08,03,13,36,27.30
2014,08,03,13,37,27.30
2014,08,03,13,38,27.30
2014,08,03,13,39,27.40
2014,08,03,13,40,27.40
2014,08,03,13,41,27.50
2014,08,03,13,42,27.50
2014,08,03,13,43,27.50
2014,08,03,13,44,27.40
2014,08,03,13,45,27.20
2014,08,03,13,46,27.00
2014,08,03,13,47,26.90
2014,08,03,13,48,26.90
2014,08,03,13,49,26.80
2014,08,03,13,50,26.80
2014,08,03,13,51,26.80
2014,08,03,13,52,26.80
2014,08,03,13,53,26.90
2014,08,03,13,54,26.90
2014,08,03,13,55,27.00
2014,08,03,13,56,27.10
2014,08,03,13,57,27.20
2014,08,03,13,58,27.20
2014,08,03,13,59,27.20
2014,08,03,14,00,27.20
2014,08,03,14,01,27.10
2014,08,03,14,02,27.10
2014,08,03,14,03,27.10
2014,08,03,14,04,27.10
2014,08,03,14,05,27.10
2014,08,03,14,06,27.10
2014,08,03,14,07,27.10
2014,08,03,14,08,27.10
2014,08,03,14,09,27.10
2014,08,03,14,10,27.20
2014,08,03,14,11,27.20
2014,08,03,14,12,27.20
2014,08,03,14,13,27.20
2014,08,03,14,14,27.20
2014,08,03,14,15,27.30
2014,08,03,14,16,27.30
2014,08,03,14,17,27.30
2014,08,03,14,18,27.30
2014,08,03,14,19,27.30
2014,08,03,14,20,27.20
2014,08,03,14,21,27.10
2014,08,03,14,22,27.10
2014,08,03,14,23,27.10
2014,08,03,14,24,27.10
2014,08,03,14,25,27.20
2014,08,03,14,26,27.10
2014,08,03,14,27,27.10
2014,08,03,14,28,27.10
2014,08,03,14,29,27.10
2014,08,03,14,30,27.10
2014,08,03,14,31,27.10
2014,08,03,14,32,27.20
2014,08,03,14,33,27.20
2014,08,03,14,34,27.30
2014,08,03,14,35,27.40
2014,08,03,14,36,27.60
2014,08,03,14,37,27.70
2014,08,03,14,38,27.70
2014,08,03,14,39,27.70
2014,08,03,14,40,27.70
2014,08,03,14,41,27.70
2014,08,03,14,42,27.70
2014,08,03,14,43,27.80
2014,08,03,14,44,27.80
2014,08,03,14,45,27.90
2014,08,03,14,46,28.00
2014,08,03,14,47,28.00
2014,08,03,14,48,28.00
2014,08,03,14,49,28.00
2014,08,03,14,50,28.10
2014,08,03,14,51,28.10
2014,08,03,14,52,28.20
2014,08,03,14,53,28.30
2014,08,03,14,54,28.30
2014,08,03,14,55,28.30
2014,08,03,14,56,28.20
2014,08,03,14,57,28.10
2014,08,03,14,58,28.00
2014,08,03,14,59,28.00
2014,08,03,15,00,28.00
2014,08,03,15,01,28.00
2014,08,03,15,02,28.00
2014,08,03,15,03,28.00
2014,08,03,15,04,28.00
2014,08,03,15,05,28.10
2014,08,03,15,06,28.10
2014,08,03,15,07,28.10
2014,08,03,15,08,28.10
2014,08,03,15,09,28.10
2014,08,03,15,10,28.00
2014,08,03,15,11,28.00
2014,08,03,15,12,28.00
2014,08,03,15,13,28.10
2014,08,03,15,14,28.10
2014,08,03,15,15,28.10
2014,08,03,15,16,28.20
2014,08,03,15,17,28.20
2014,08,03,15,18,28.20
2014,08,03,15,19,28.20
2014,08,03,15,20,28.20
2014,08,03,15,21,28.20
2014,08,03,15,22,28.20
2014,08,03,15,23,28.20
2014,08,03,15,24,28.20
2014,08,03,15,25,28.20
2014,08,03,15,26,28.30
2014,08,03,15,27,28.30
2014,08,03,15,28,28.30
2014,08,03,15,29,28.30
2014,08,03,15,30,28.40
2014,08,03,15,31,28.40
2014,08,03,15,32,28.40
2014,08,03,15,33,28.40
2014,08,03,15,34,28.40
2014,08,03,15,35,28.30
2014,08,03,15,36,28.30
2014,08,03,15,37,28.30
2014,08,03,15,38,28.30
2014,08,03,15,39,28.30
2014,08,03,15,40,28.30
2014,08,03,15,41,28.40
2014,08,03,15,42,28.40
2014,08,03,15,43,28.50
2014,08,03,15,44,28.60
2014,08,03,15,45,28.70
2014,08,03,15,46,28.70
2014,08,03,15,47,28.80
2014,08,03,15,48,28.70
2014,08,03,15,49,28.70
2014,08,03,15,50,28.80
2014,08,03,15,51,28.80
2014,08,03,15,52,28.80
2014,08,03,15,53,28.80
2014,08,03,15,54,28.80
2014,08,03,15,55,28.80
2014,08,03,15,56,28.80
2014,08,03,15,57,28.90
2014,08,03,15,58,29.00
2014,08,03,15,59,29.10
2014,08,03,16,00,29.10
2014,08,03,16,01,29.20
2014,08,03,16,02,29.30
2014,08,03,16,03,29.30
2014,08,03,16,04,29.30
2014,08,03,16,05,29.30
2014,08,03,16,06,29.30
2014,08,03,16,07,29.30
2014,08,03,16,08,29.30
2014,08,03,16,09,29.30
2014,08,03,16,10,29.30
2014,08,03,16,11,29.30
2014,08,03,16,12,29.30
2014,08,03,16,13,29.30
2014,08,03,16,14,29.30
2014,08,03,16,15,29.20
2014,08,03,16,16,29.20
2014,08,03,16,17,29.10
2014,08,03,16,18,29.00
2014,08,03,16,19,29.00
2014,08,03,16,20,28.90
2014,08,03,16,21,28.80
2014,08,03,16,22,28.80
2014,08,03,16,23,28.80
2014,08,03,16,24,28.70
2014,08,03,16,25,28.80
2014,08,03,16,26,28.70
2014,08,03,16,27,28.80
2014,08,03,16,28,28.80
2014,08,03,16,29,28.90
2014,08,03,16,30,28.90
2014,08,03,16,31,29.00
2014,08,03,16,32,29.00
2014,08,03,16,33,29.10
2014,08,03,16,34,29.10
2014,08,03,16,35,29.10
2014,08,03,16,36,29.10
2014,08,03,16,37,29.10
2014,08,03,16,38,29.10
2014,08,03,16,39,29.10
2014,08,03,16,40,29.10
2014,08,03,16,41,29.00
2014,08,03,16,42,29.00
2014,08,03,16,43,29.00
2014,08,03,16,44,29.00
2014,08,03,16,45,29.00
2014,08,03,16,46,28.90
2014,08,03,16,47,28.90
2014,08,03,16,48,28.90
2014,08,03,16,49,28.90
2014,08,03,16,50,28.80
2014,08,03,16,51,28.80
2014,08,03,16,52,28.80
2014,08,03,16,53,28.80
2014,08,03,16,54,28.80
2014,08,03,16,55,28.80
2014,08,03,16,56,28.80
2014,08,03,16,57,28.80
2014,08,03,16,58,28.80
2014,08,03,16,59,28.90
2014,08,03,17,00,29.00
2014,08,03,17,01,29.00
2014,08,03,17,02,29.10
2014,08,03,17,03,29.20
2014,08,03,17,04,29.10
2014,08,03,17,05,29.10
2014,08,03,17,06,29.10
2014,08,03,17,07,29.10
2014,08,03,17,08,29.20
2014,08,03,17,09,29.20
2014,08,03,17,10,29.30
2014,08,03,17,11,29.30
2014,08,03,17,12,29.30
2014,08,03,17,13,29.30
2014,08,03,17,14,29.30
2014,08,03,17,15,29.30
2014,08,03,17,16,29.30
2014,08,03,17,17,29.30
2014,08,03,17,18,29.30
2014,08,03,17,19,29.20